This is the latest recevied weather packets stored in our database for station/object N4MGC. If no packets are shown the sender has not sent any weather packets the latest 10 day(s).
| Time | Temp. | Humidity | Pressure | Rain* | Wind** | Luminosity | Snow |
|---|---|---|---|---|---|---|---|
| 1777479315 | 23.33° C | 93% | 1013.9 hPa | 0 mm | - | 212 W/m² | - |
| 1777479010 | 23.33° C | 93% | 1013.7 hPa | 0 mm | - | 203 W/m² | - |
| 1777478707 | 23.33° C | 94% | 1014.1 hPa | 0 mm | - | 241 W/m² | - |
| 1777478404 | 22.78° C | 94% | 1014 hPa | 0 mm | - | 216 W/m² | - |
| 1777478100 | 22.78° C | 94% | 1014 hPa | 0 mm | - | 159 W/m² | - |
| 1777477796 | 22.78° C | 95% | 1013.9 hPa | 0 mm | - | 97 W/m² | - |
| 1777477492 | 22.78° C | 95% | 1013.9 hPa | 0 mm | - | 138 W/m² | - |
| 1777477189 | 22.78° C | 95% | 1013.9 hPa | 0 mm | - | 162 W/m² | - |
| 1777476885 | 22.78° C | 95% | 1014 hPa | 0 mm | - | 90 W/m² | - |
| 1777476583 | 22.78° C | 94% | 1013.8 hPa | 0 mm | - | 136 W/m² | - |
| 1777476279 | 22.22° C | 95% | 1013.6 hPa | 0 mm | - | 150 W/m² | - |
| 1777475975 | 22.22° C | 95% | 1013.6 hPa | 0 mm | - | 151 W/m² | - |
| 1777475672 | 22.22° C | 96% | 1013.5 hPa | 0 mm | - | 163 W/m² | - |
| 1777475368 | 22.22° C | 96% | 1013.6 hPa | 0 mm | - | 137 W/m² | - |
| 1777475063 | 21.67° C | 96% | 1013.7 hPa | 0 mm | - | 153 W/m² | - |
| 1777474760 | 21.67° C | 96% | 1013.9 hPa | 0 mm | - | 164 W/m² | - |
| 1777474456 | 21.67° C | 99% | 1013.7 hPa | 0 mm | - | 313 W/m² | - |
| 1777474152 | 21.11° C | 99% | 1013.7 hPa | 0 mm | - | 259 W/m² | - |
| 1777473850 | 21.11° C | 99% | 1013.7 hPa | 0 mm | - | 139 W/m² | - |
| 1777473547 | 20.56° C | 99% | 1013.8 hPa | 0 mm | - | 165 W/m² | - |
| 1777473242 | 20.56° C | 99% | 1013.7 hPa | 0 mm | - | 153 W/m² | - |
| 1777472939 | 20.56° C | 99% | 1013.8 hPa | 0 mm | - | 170 W/m² | - |
| 1777472636 | 20.56° C | 99% | 1014 hPa | 0 mm | - | 160 W/m² | - |
| 1777472332 | 20° C | 99% | 1013.8 hPa | 0 mm | - | 206 W/m² | - |
| 1777472030 | 20° C | 99% | 1013.9 hPa | 0 mm | - | 163 W/m² | - |
* Rain latest hour (hover to see other rain measurements)
** Current wind speed in m/s (hover to see current wind gust speed)